Weather History for KCRG - January, 2014

Change the Weather History Date:

Friday, January 24, 2014

  Actual Average Record
Temperature  
Mean Temperature 40 °F -  
Max Temperature 43 °F 63 °F 81 °F (2002)
Min Temperature 37 °F 43 °F 21 °F (2003)
Degree Days  
Heating Degree Days 25    
Moisture  
Dew Point 20 °F    
Average Humidity 45    
Maximum Humidity 63    
Minimum Humidity 28    
Precipitation  
Precipitation 0.00 in - - ()
Sea Level Pressure  
Sea Level Pressure 30.45 in    
Wind  
Wind Speed 8 mph (NNE)    
Max Wind Speed 16 mph    
Max Gust Speed 24 mph    
Visibility 10 miles    
Events      
Averages and records for this station are not official NWS values.
T = Trace of Precipitation, MM = Missing Value Source: NWS Daily Summary

Daily Weather History Graph

Daily Weather History Graph

Search for Another Location

Airport or City:

Trip Planner

Search our weather history database for the weather conditions in past years. The results will help you decide how hot, cold, wet, or windy it might be!

Date:

Astronomy

Jan. 24, 2014 Rise Set
Actual Time 7:20 AM EST 5:55 PM EST
Civil Twilight 6:55 AM EST 6:21 PM EST
Nautical Twilight 6:26 AM EST 6:50 PM EST
Astronomical Twilight 5:57 AM EST 7:19 PM EST
Moon 12:52 AM EST (1/24) 12:09 PM EST (1/24)
Length of Visible Light 11h 25m
Length of Day
10h 34m
Last Quarter, 45% of the Moon is Illuminated
Jan 24
Last Quarter
Jan 30
New
Feb 6
First Quarter
Feb 14
Full
Feb 22
Last Quarter

Hourly Weather History & Observations

Time (EST) Temp. Windchill Dew Point Humidity Pressure Visibility Wind Dir Wind Speed Gust Speed Precip Events Conditions
12:53 AM 42.1 °F - 25.0 °F 51% 30.40 in 10.0 mi Calm Calm - N/A   Clear
1:53 AM 42.1 °F 39.2 °F 25.0 °F 51% 30.41 in 10.0 mi WNW 4.6 mph - N/A   Clear
2:53 AM 43.0 °F 37.2 °F 23.0 °F 45% 30.43 in 10.0 mi NNW 10.4 mph - N/A   Clear
3:53 AM 41.0 °F 34.3 °F 19.9 °F 43% 30.45 in 10.0 mi North 11.5 mph - N/A   Clear
4:53 AM 39.9 °F 31.8 °F 19.9 °F 45% 30.48 in 10.0 mi NNW 15.0 mph - N/A   Clear
5:53 AM 37.9 °F 30.5 °F 18.0 °F 45% 30.50 in 10.0 mi NNW 11.5 mph - N/A   Clear
6:53 AM 37.0 °F 30.4 °F 14.0 °F 39% 30.51 in 10.0 mi North 9.2 mph - N/A   Partly Cloudy
7:53 AM 37.0 °F 28.9 °F 12.9 °F 37% 30.52 in 10.0 mi North 12.7 mph - N/A   Scattered Clouds
8:53 AM 37.9 °F 30.5 °F 10.9 °F 33% 30.53 in 10.0 mi North 11.5 mph - N/A   Clear
9:53 AM 41.0 °F 34.7 °F 10.0 °F 28% 30.54 in 10.0 mi North 10.4 mph 16.1 mph N/A   Clear
10:53 AM 41.0 °F 33.9 °F 12.9 °F 32% 30.54 in 10.0 mi North 12.7 mph - N/A   Clear
11:53 AM 43.0 °F 36.8 °F 16.0 °F 34% 30.52 in 10.0 mi North 11.5 mph - N/A   Clear
12:53 PM 42.1 °F 34.2 °F 16.0 °F 35% 30.49 in 10.0 mi NE 16.1 mph 24.2 mph N/A   Clear
1:53 PM 43.0 °F 36.0 °F 19.0 °F 38% 30.45 in 10.0 mi NE 13.8 mph - N/A   Clear
2:53 PM 42.1 °F 34.2 °F 19.9 °F 41% 30.43 in 10.0 mi North 16.1 mph 19.6 mph N/A   Clear
3:53 PM 42.1 °F 35.7 °F 21.9 °F 45% 30.43 in 10.0 mi ENE 11.5 mph 18.4 mph N/A   Clear
4:53 PM 42.1 °F 36.1 °F 21.9 °F 45% 30.43 in 10.0 mi NNE 10.4 mph - N/A   Clear
5:53 PM 39.9 °F 35.1 °F 23.0 °F 51% 30.43 in 10.0 mi NE 6.9 mph - N/A   Clear
6:53 PM 41.0 °F 38.0 °F 25.0 °F 53% 30.42 in 10.0 mi Variable 4.6 mph - N/A   Clear
7:53 PM 41.0 °F 39.0 °F 24.1 °F 51% 30.41 in 10.0 mi ENE 3.5 mph - N/A   Overcast
8:53 PM 41.0 °F 38.0 °F 25.0 °F 53% 30.40 in 10.0 mi East 4.6 mph - N/A   Overcast
9:53 PM 41.0 °F 39.0 °F 26.1 °F 55% 30.38 in 10.0 mi East 3.5 mph - N/A   Overcast
10:53 PM 39.9 °F - 26.1 °F 58% 30.37 in 10.0 mi Calm Calm - N/A   Scattered Clouds
11:53 PM 39.9 °F - 28.0 °F 63% 30.34 in 10.0 mi Calm Calm - N/A   Mostly Cloudy